"Period start","avg(HW err(1)/warn(2) (#))","avg(Visibility (m))","avg(Weather code (#))","avg(Precip intensity (mm/h))","min(HW err(1)/warn(2) (#))","max(HW err(1)/warn(2) (#))","std(HW err(1)/warn(2) (#))","med(HW err(1)/warn(2) (#))","min(Visibility (m))","max(Visibility (m))","std(Visibility (m))","med(Visibility (m))","min(Weather code (#))","max(Weather code (#))","std(Weather code (#))","med(Weather code (#))","min(Precip intensity (mm/h))","max(Precip intensity (mm/h))","std(Precip intensity (mm/h))","med(Precip intensity (mm/h))"
2014-08-31 00:00:00,2,42743,0,0.00,2,2,0,2,31582,50000,5906,43748,0,0,0,0,0.00,0.00,0.00,0.00
2014-08-31 00:10:00,2,42122,0,0.00,2,2,0,2,28639,50000,6352,43242,0,0,0,0,0.00,0.00,0.00,0.00
2014-08-31 00:20:00,2,44938,0,0.00,2,2,0,2,33188,50000,6212,47343,0,0,0,0,0.00,0.00,0.00,0.00
2014-08-31 00:30:00,2,49971,0,0.00,2,2,0,2,49706,50000,88,50000,0,0,0,0,0.00,0.00,0.00,0.00
2014-08-31 00:40:00,2,50000,0,0.00,2,2,0,2,50000,50000,0,50000,0,0,0,0,0.00,0.00,0.00,0.00
2014-08-31 00:50:00,2,46560,0,0.00,2,2,0,2,35445,50000,4439,48305,0,0,0,0,0.00,0.00,0.00,0.00
2014-08-31 01:00:00,2,46298,0,0.00,2,2,0,2,32541,50000,5313,49018,0,0,0,0,0.00,0.00,0.00,0.00
2014-08-31 01:10:00,2,41479,0,0.00,2,2,0,2,32864,50000,5127,41640,0,0,0,0,0.00,0.00,0.00,0.00
2014-08-31 01:20:00,2,37806,6,0.01,2,2,0,2,3364,50000,13259,40332,0,61,18,0,0.00,0.10,0.03,0.00
2014-08-31 01:30:00,2,36853,18,0.11,2,2,0,2,3354,50000,16938,45172,0,61,28,0,0.00,1.05,0.32,0.00
2014-08-31 01:40:00,2,47092,0,0.00,2,2,0,2,39316,50000,3319,48052,0,0,0,0,0.00,0.00,0.00,0.00
2014-08-31 01:50:00,2,41810,0,0.00,2,2,0,2,13230,50000,13473,48652,0,0,0,0,0.00,0.00,0.00,0.00
2014-08-31 02:00:00,2,32018,0,0.00,2,2,0,2,16450,47694,9342,32504,0,0,0,0,0.00,0.00,0.00,0.00
2014-08-31 02:10:00,2,22114,30,2.43,2,2,0,2,5032,50000,16287,14840,0,61,26,40,0.00,9.75,3.55,0.53
2014-08-31 02:20:00,2,41416,0,0.00,2,2,0,2,32862,50000,5112,41158,0,0,0,0,0.00,0.00,0.00,0.00
2014-08-31 02:30:00,2,17301,24,1.02,2,2,0,2,4248,49579,16143,9044,0,61,30,0,0.00,5.05,1.97,0.00
2014-08-31 02:40:00,2,16080,53,1.95,2,2,0,2,7043,38923,10457,10413,0,61,18,61,0.00,7.90,2.89,0.40
2014-08-31 02:50:00,2,10992,43,2.31,2,2,0,2,5171,41213,10173,8124,0,61,28,61,0.00,7.50,2.51,1.23
2014-08-31 03:00:00,2,30296,2,0.00,2,2,0,2,12809,45560,8607,28536,0,10,4,0,0.00,0.00,0.00,0.00
2014-08-31 03:10:00,2,19764,12,0.31,2,2,0,2,5954,33930,9580,19455,0,61,24,0,0.00,2.85,0.85,0.00
2014-08-31 03:20:00,2,25531,24,2.97,2,2,0,2,4033,49511,18590,24516,0,62,30,0,0.00,12.70,4.45,0.00
2014-08-31 03:30:00,2,46249,0,0.00,2,2,0,2,32158,50000,5306,48786,0,0,0,0,0.00,0.00,0.00,0.00
2014-08-31 03:40:00,2,34852,0,0.00,2,2,0,2,10496,46638,12131,42121,0,0,0,0,0.00,0.00,0.00,0.00
2014-08-31 03:50:00,2,17099,33,0.06,2,2,0,2,10984,28193,4744,17654,0,61,23,41,0.00,0.20,0.08,0.03
2014-08-31 04:00:00,2,14564,51,0.42,2,2,0,2,9761,26795,5043,13638,51,51,0,51,0.05,1.10,0.31,0.38
2014-08-31 04:10:00,2,21597,55,0.21,2,2,0,2,9951,33706,9302,24290,41,61,8,61,0.00,0.65,0.26,0.05
2014-08-31 04:20:00,2,12122,53,0.10,2,2,0,2,6506,20360,4226,12039,41,61,10,61,0.00,0.30,0.10,0.10
2014-08-31 04:30:00,2,15150,12,0.01,2,2,0,2,12778,19822,2226,14574,0,41,19,0,0.00,0.05,0.02,0.00
2014-08-31 04:40:00,2,18463,0,0.00,2,2,0,2,10829,25980,4346,17022,0,0,0,0,0.00,0.00,0.00,0.00
2014-08-31 04:50:00,2,16043,37,0.06,2,2,0,2,11418,22429,3750,15223,0,41,12,41,0.00,0.20,0.07,0.05
2014-08-31 05:00:00,2,17364,29,0.00,2,2,0,2,10020,29231,6720,14216,0,41,19,41,0.00,0.00,0.00,0.00
2014-08-31 05:10:00,2,12326,13,0.10,2,2,0,2,9219,14683,1741,12325,0,51,20,0,0.00,0.65,0.20,0.00
2014-08-31 05:20:00,2,10202,50,0.21,2,2,0,2,8115,12703,1281,10458,41,51,3,51,0.05,0.40,0.13,0.25
2014-08-31 05:30:00,2,17533,49,0.21,2,2,0,2,9994,29386,5168,16362,41,51,4,51,0.05,0.40,0.12,0.25
2014-08-31 05:40:00,2,16076,47,0.11,2,2,0,2,10930,24500,4653,15234,41,51,5,51,0.00,0.30,0.10,0.10
2014-08-31 05:50:00,2,13356,48,0.21,2,2,0,2,8189,18579,3042,12436,41,61,8,46,0.05,0.80,0.21,0.12
2014-08-31 06:00:00,2,15287,46,0.17,2,2,0,2,11646,18085,2172,15233,41,61,8,41,0.05,0.45,0.15,0.12
2014-08-31 06:10:00,2,18218,52,0.75,2,2,0,2,14917,21872,2490,18762,51,52,0,52,0.30,1.20,0.27,0.78
2014-08-31 06:20:00,2,19139,61,0.87,2,2,0,2,15221,24573,2523,19254,61,61,0,61,0.20,1.45,0.35,0.85
2014-08-31 06:30:00,2,17543,61,0.59,2,2,0,2,11497,27535,4871,16369,61,61,0,61,0.20,1.70,0.44,0.42
2014-08-31 06:40:00,2,13600,61,1.76,2,2,0,2,9574,17544,2784,14320,61,61,0,61,0.45,4.35,1.29,1.45
2014-08-31 06:50:00,2,15440,61,2.14,2,2,0,2,11816,20024,2792,15274,61,61,0,61,1.25,3.00,0.54,2.08
2014-08-31 07:00:00,2,28641,59,0.60,2,2,0,2,15054,43719,9326,29242,51,61,4,61,0.10,1.85,0.51,0.47
2014-08-31 07:10:00,2,20779,57,0.70,2,2,0,2,13215,29250,5868,19715,51,61,5,61,0.00,2.80,0.82,0.38
2014-08-31 07:20:00,2,33704,55,0.67,2,2,0,2,13876,50000,14995,34434,51,61,5,52,0.05,2.10,0.72,0.30
2014-08-31 07:30:00,2,23337,52,0.52,2,2,0,2,8816,50000,16376,15196,41,61,6,52,0.00,0.90,0.34,0.65
2014-08-31 07:40:00,2,19103,52,0.41,2,2,0,2,12519,31795,7108,16585,51,52,0,52,0.10,0.80,0.21,0.38
2014-08-31 07:50:00,2,34258,39,0.07,2,2,0,2,18334,50000,7931,34468,0,52,14,41,0.00,0.20,0.06,0.05
2014-08-31 08:00:00,2,30784,13,0.26,2,2,0,2,14316,50000,13039,25322,0,52,20,0,0.00,1.15,0.41,0.00
2014-08-31 08:10:00,2,20715,52,0.98,2,2,0,2,14486,28348,4697,19234,51,52,0,52,0.35,1.80,0.51,0.98
2014-08-31 08:20:00,2,46456,5,0.02,2,2,0,2,30046,50000,5975,49052,0,52,16,0,0.00,0.20,0.06,0.00
2014-08-31 08:30:00,2,50000,0,0.00,2,2,0,2,50000,50000,0,50000,0,0,0,0,0.00,0.00,0.00,0.00
2014-08-31 08:40:00,2,41333,37,0.06,2,2,0,2,28611,50000,7954,43746,0,61,25,41,0.00,0.15,0.05,0.05
2014-08-31 08:50:00,2,30059,50,0.23,2,2,0,2,19894,41868,6753,29169,41,61,7,51,0.05,0.70,0.18,0.20
2014-08-31 09:00:00,2,29220,51,0.21,2,2,0,2,16459,41560,6618,29760,51,51,0,51,0.10,0.40,0.10,0.20
2014-08-31 09:10:00,2,31559,50,0.27,2,2,0,2,17298,49312,10430,31664,41,51,3,51,0.00,0.50,0.18,0.30
2014-08-31 09:20:00,2,49810,41,0.02,2,2,0,2,48105,50000,568,50000,41,41,0,41,0.00,0.15,0.05,0.00
2014-08-31 09:30:00,2,45979,48,0.26,2,2,0,2,29913,50000,6820,49136,41,61,8,46,0.00,1.30,0.38,0.10
2014-08-31 09:40:00,2,33744,57,0.65,2,2,0,2,20586,50000,10902,29166,51,61,5,61,0.10,1.50,0.43,0.62
2014-08-31 09:50:00,2,46314,50,0.04,2,2,0,2,38927,50000,4211,47974,41,61,8,51,0.00,0.15,0.05,0.00
2014-08-31 10:00:00,2,49804,12,0.01,2,2,0,2,48039,50000,588,50000,0,41,19,0,0.00,0.05,0.02,0.00
2014-08-31 10:10:00,2,50000,0,0.00,2,2,0,2,50000,50000,0,50000,0,0,0,0,0.00,0.00,0.00,0.00
2014-08-31 10:20:00,2,47684,12,0.02,2,2,0,2,44341,50000,2077,47304,0,41,19,0,0.00,0.10,0.03,0.00
2014-08-31 10:30:00,2,39516,53,0.31,2,2,0,2,29270,48475,5567,40565,41,61,6,51,0.10,0.90,0.22,0.20
2014-08-31 10:40:00,2,40550,58,0.54,2,2,0,2,29718,49962,5972,38654,51,61,4,61,0.05,1.40,0.45,0.35
2014-08-31 10:50:00,2,50000,55,0.08,2,2,0,2,50000,50000,0,50000,51,61,5,51,0.00,0.20,0.06,0.05
2014-08-31 11:00:00,2,49754,51,0.16,2,2,0,2,47542,50000,737,50000,51,51,0,51,0.05,0.30,0.07,0.15
2014-08-31 11:10:00,2,44078,51,0.36,2,2,0,2,35289,50000,4812,43889,51,51,0,51,0.05,0.95,0.22,0.30
2014-08-31 11:20:00,2,37650,51,0.36,2,2,0,2,26812,45853,6587,36644,51,51,0,51,0.10,0.70,0.18,0.40
2014-08-31 11:30:00,2,27018,51,0.29,2,2,0,2,18488,35127,4957,27454,51,51,0,51,0.05,0.55,0.16,0.28
2014-08-31 11:40:00,2,36782,51,0.27,2,2,0,2,27123,50000,7314,34940,51,51,0,51,0.05,0.65,0.16,0.28
2014-08-31 11:50:00,2,39288,58,0.38,2,2,0,2,31953,48974,5595,39808,51,61,5,61,0.10,0.90,0.24,0.38
2014-08-31 12:00:00,2,48103,54,0.29,2,2,0,2,44351,50000,1920,48740,51,61,5,51,0.10,0.70,0.19,0.20
2014-08-31 12:10:00,2,43949,52,0.17,2,2,0,2,32004,50000,7124,48450,51,61,3,51,0.00,0.75,0.25,0.05
2014-08-31 12:20:00,2,45428,6,0.00,2,2,0,2,31491,50000,6645,48374,0,61,18,0,0.00,0.00,0.00,0.00
2014-08-31 12:30:00,2,21689,0,0.00,2,2,0,2,17198,26626,2433,21899,0,0,0,0,0.00,0.00,0.00,0.00
2014-08-31 12:40:00,2,18468,0,0.00,2,2,0,2,14313,22418,2721,19670,0,0,0,0,0.00,0.00,0.00,0.00
2014-08-31 12:50:00,2,23687,0,0.00,2,2,0,2,16146,31547,5600,24732,0,0,0,0,0.00,0.00,0.00,0.00
2014-08-31 13:00:00,2,27769,0,0.00,2,2,0,2,11793,38695,8563,30518,0,0,0,0,0.00,0.00,0.00,0.00
2014-08-31 13:10:00,2,18674,0,0.00,2,2,0,2,10783,28828,5846,18840,0,0,0,0,0.00,0.00,0.00,0.00
2014-08-31 13:20:00,2,12799,0,0.00,2,2,0,2,9577,17890,3080,11484,0,0,0,0,0.00,0.00,0.00,0.00
2014-08-31 13:30:00,2,32012,0,0.00,2,2,0,2,14461,50000,12873,31964,0,0,0,0,0.00,0.00,0.00,0.00
2014-08-31 13:40:00,2,36580,0,0.00,2,2,0,2,29008,50000,7702,32711,0,0,0,0,0.00,0.00,0.00,0.00
2014-08-31 13:50:00,2,50000,0,0.00,2,2,0,2,50000,50000,0,50000,0,0,0,0,0.00,0.00,0.00,0.00
2014-08-31 14:00:00,2,50000,0,0.00,2,2,0,2,50000,50000,0,50000,0,0,0,0,0.00,0.00,0.00,0.00
2014-08-31 14:10:00,2,50000,0,0.00,2,2,0,2,50000,50000,0,50000,0,0,0,0,0.00,0.00,0.00,0.00
2014-08-31 14:20:00,2,50000,0,0.00,2,2,0,2,50000,50000,0,50000,0,0,0,0,0.00,0.00,0.00,0.00
2014-08-31 14:30:00,2,50000,0,0.00,2,2,0,2,50000,50000,0,50000,0,0,0,0,0.00,0.00,0.00,0.00
2014-08-31 14:40:00,2,50000,0,0.00,2,2,0,2,50000,50000,0,50000,0,0,0,0,0.00,0.00,0.00,0.00
2014-08-31 14:50:00,2,50000,0,0.00,2,2,0,2,50000,50000,0,50000,0,0,0,0,0.00,0.00,0.00,0.00
2014-08-31 15:00:00,2,50000,0,0.00,2,2,0,2,50000,50000,0,50000,0,0,0,0,0.00,0.00,0.00,0.00
2014-08-31 15:10:00,2,50000,0,0.00,2,2,0,2,50000,50000,0,50000,0,0,0,0,0.00,0.00,0.00,0.00
2014-08-31 15:20:00,2,49928,0,0.00,2,2,0,2,49276,50000,217,50000,0,0,0,0,0.00,0.00,0.00,0.00
2014-08-31 15:30:00,2,50000,0,0.00,2,2,0,2,50000,50000,0,50000,0,0,0,0,0.00,0.00,0.00,0.00
2014-08-31 15:40:00,2,50000,0,0.00,2,2,0,2,50000,50000,0,50000,0,0,0,0,0.00,0.00,0.00,0.00
2014-08-31 15:50:00,2,50000,0,0.00,2,2,0,2,50000,50000,0,50000,0,0,0,0,0.00,0.00,0.00,0.00
2014-08-31 16:00:00,2,50000,0,0.00,2,2,0,2,50000,50000,0,50000,0,0,0,0,0.00,0.00,0.00,0.00
2014-08-31 16:10:00,2,50000,0,0.00,2,2,0,2,50000,50000,0,50000,0,0,0,0,0.00,0.00,0.00,0.00
2014-08-31 16:20:00,2,50000,0,0.00,2,2,0,2,50000,50000,0,50000,0,0,0,0,0.00,0.00,0.00,0.00
2014-08-31 16:30:00,2,50000,0,0.00,2,2,0,2,50000,50000,0,50000,0,0,0,0,0.00,0.00,0.00,0.00
2014-08-31 16:40:00,2,50000,0,0.00,2,2,0,2,50000,50000,0,50000,0,0,0,0,0.00,0.00,0.00,0.00
2014-08-31 16:50:00,2,50000,0,0.00,2,2,0,2,50000,50000,0,50000,0,0,0,0,0.00,0.00,0.00,0.00
2014-08-31 17:00:00,2,50000,0,0.00,2,2,0,2,50000,50000,0,50000,0,0,0,0,0.00,0.00,0.00,0.00
2014-08-31 17:10:00,2,50000,0,0.00,2,2,0,2,50000,50000,0,50000,0,0,0,0,0.00,0.00,0.00,0.00
2014-08-31 17:20:00,2,50000,0,0.00,2,2,0,2,50000,50000,0,50000,0,0,0,0,0.00,0.00,0.00,0.00
2014-08-31 17:30:00,2,49821,0,0.00,2,2,0,2,48214,50000,536,50000,0,0,0,0,0.00,0.00,0.00,0.00
2014-08-31 17:40:00,2,50000,0,0.00,2,2,0,2,50000,50000,0,50000,0,0,0,0,0.00,0.00,0.00,0.00
2014-08-31 17:50:00,2,49961,0,0.00,2,2,0,2,49611,50000,117,50000,0,0,0,0,0.00,0.00,0.00,0.00
2014-08-31 18:00:00,2,50000,0,0.00,2,2,0,2,50000,50000,0,50000,0,0,0,0,0.00,0.00,0.00,0.00
2014-08-31 18:10:00,2,50000,0,0.00,2,2,0,2,50000,50000,0,50000,0,0,0,0,0.00,0.00,0.00,0.00
2014-08-31 18:20:00,2,50000,0,0.00,2,2,0,2,50000,50000,0,50000,0,0,0,0,0.00,0.00,0.00,0.00
2014-08-31 18:30:00,2,50000,0,0.00,2,2,0,2,50000,50000,0,50000,0,0,0,0,0.00,0.00,0.00,0.00
2014-08-31 18:40:00,2,50000,0,0.00,2,2,0,2,50000,50000,0,50000,0,0,0,0,0.00,0.00,0.00,0.00
2014-08-31 18:50:00,2,49977,0,0.00,2,2,0,2,49768,50000,70,50000,0,0,0,0,0.00,0.00,0.00,0.00
2014-08-31 19:00:00,2,50000,0,0.00,2,2,0,2,50000,50000,0,50000,0,0,0,0,0.00,0.00,0.00,0.00
2014-08-31 19:10:00,2,50000,0,0.00,2,2,0,2,50000,50000,0,50000,0,0,0,0,0.00,0.00,0.00,0.00
2014-08-31 19:20:00,2,50000,0,0.00,2,2,0,2,50000,50000,0,50000,0,0,0,0,0.00,0.00,0.00,0.00
2014-08-31 19:30:00,2,50000,0,0.00,2,2,0,2,50000,50000,0,50000,0,0,0,0,0.00,0.00,0.00,0.00
2014-08-31 19:40:00,2,50000,0,0.00,2,2,0,2,50000,50000,0,50000,0,0,0,0,0.00,0.00,0.00,0.00
2014-08-31 19:50:00,2,50000,0,0.00,2,2,0,2,50000,50000,0,50000,0,0,0,0,0.00,0.00,0.00,0.00
2014-08-31 20:00:00,2,50000,0,0.00,2,2,0,2,50000,50000,0,50000,0,0,0,0,0.00,0.00,0.00,0.00
2014-08-31 20:10:00,2,50000,0,0.00,2,2,0,2,50000,50000,0,50000,0,0,0,0,0.00,0.00,0.00,0.00
2014-08-31 20:20:00,2,50000,0,0.00,2,2,0,2,50000,50000,0,50000,0,0,0,0,0.00,0.00,0.00,0.00
2014-08-31 20:30:00,2,50000,0,0.00,2,2,0,2,50000,50000,0,50000,0,0,0,0,0.00,0.00,0.00,0.00
2014-08-31 20:40:00,2,50000,0,0.00,2,2,0,2,50000,50000,0,50000,0,0,0,0,0.00,0.00,0.00,0.00
2014-08-31 20:50:00,2,50000,0,0.00,2,2,0,2,50000,50000,0,50000,0,0,0,0,0.00,0.00,0.00,0.00
2014-08-31 21:00:00,2,50000,0,0.00,2,2,0,2,50000,50000,0,50000,0,0,0,0,0.00,0.00,0.00,0.00
2014-08-31 21:10:00,2,50000,0,0.00,2,2,0,2,50000,50000,0,50000,0,0,0,0,0.00,0.00,0.00,0.00
2014-08-31 21:20:00,2,50000,0,0.00,2,2,0,2,50000,50000,0,50000,0,0,0,0,0.00,0.00,0.00,0.00
2014-08-31 21:30:00,2,49531,0,0.00,2,2,0,2,47830,50000,834,50000,0,0,0,0,0.00,0.00,0.00,0.00
2014-08-31 21:40:00,2,49480,0,0.00,2,2,0,2,47280,50000,1041,50000,0,0,0,0,0.00,0.00,0.00,0.00
2014-08-31 21:50:00,2,49904,0,0.00,2,2,0,2,49210,50000,235,50000,0,0,0,0,0.00,0.00,0.00,0.00
2014-08-31 22:00:00,2,48337,0,0.00,2,2,0,2,43780,50000,2320,50000,0,0,0,0,0.00,0.00,0.00,0.00
2014-08-31 22:10:00,2,50000,0,0.00,2,2,0,2,50000,50000,0,50000,0,0,0,0,0.00,0.00,0.00,0.00
2014-08-31 22:20:00,2,49882,0,0.00,2,2,0,2,48817,50000,355,50000,0,0,0,0,0.00,0.00,0.00,0.00
2014-08-31 22:30:00,2,49769,0,0.00,2,2,0,2,47693,50000,692,50000,0,0,0,0,0.00,0.00,0.00,0.00
2014-08-31 22:40:00,2,49881,0,0.00,2,2,0,2,48812,50000,356,50000,0,0,0,0,0.00,0.00,0.00,0.00
2014-08-31 22:50:00,2,50000,0,0.00,2,2,0,2,50000,50000,0,50000,0,0,0,0,0.00,0.00,0.00,0.00
2014-08-31 23:00:00,2,49856,0,0.00,2,2,0,2,48874,50000,341,50000,0,0,0,0,0.00,0.00,0.00,0.00
2014-08-31 23:10:00,2,50000,0,0.00,2,2,0,2,50000,50000,0,50000,0,0,0,0,0.00,0.00,0.00,0.00
2014-08-31 23:20:00,2,49964,0,0.00,2,2,0,2,49643,50000,107,50000,0,0,0,0,0.00,0.00,0.00,0.00
2014-08-31 23:30:00,2,48647,0,0.00,2,2,0,2,44477,50000,1855,50000,0,0,0,0,0.00,0.00,0.00,0.00
2014-08-31 23:40:00,2,50000,0,0.00,2,2,0,2,50000,50000,0,50000,0,0,0,0,0.00,0.00,0.00,0.00
2014-08-31 23:50:00,2,49324,0,0.00,2,2,0,2,46074,50000,1375,50000,0,0,0,0,0.00,0.00,0.00,0.00
